Regional Weather Roundup
Issued by NWS

Home | Current Version | Previous Version | Text Only | Print | Product List | Glossary Off
Versions: 1 2 3 4 5 6 7 8 9 10 11 12 13 14 15 16 17 18 19 20 21 22 23 24 25 26 27 28 29 30 31 32 33 34 35 36 37 38 39 40 41 42 43 44 45 46 47 48 49 50

000
ASUS43 KOAX 171110
RWRNE

WEATHER ROUNDUP FOR NEBRASKA
NATIONAL WEATHER SERVICE OMAHA NE
500 AM CST FRI NOV 17 2017

NOTES: SATELLITE DATA IS BEING USED TO AUGMENT CLOUD COVER ABOVE
       12000 FEET.
       "FAIR" INDICATES FEW OR NO CLOUDS BELOW 12,000 FEET WITH NO
       SIGNIFICANT WEATHER AND/OR OBSTRUCTIONS TO VISIBILITY.


NEZ001>004-019>022-054>056-171200-
NEBRASKA PANHANDLE

CITY           SKY/WX    TMP DP  RH WIND       PRES   REMARKS
SCOTTSBLUFF    CLOUDY    37  28  70 E3        29.59F
ALLIANCE       PTCLDY    40  30  67 NE15      29.62R WCI  32
CHADRON        CLOUDY    37  27  67 CALM      29.65F
GORDON         FAIR      37  27  67 N8        29.64S WCI  31
KIMBALL        CLOUDY    37  28  69 N3        29.64S
SIDNEY         CLOUDY    35  27  72 NW7       29.63S WCI  29
$$

NEZ057>060-069>072-079>082-171200-
SOUTHWEST NEBRASKA

CITY           SKY/WX    TMP DP  RH WIND       PRES   REMARKS
NORTH PLATTE   CLOUDY    34  33  96 NW3       29.60F
LEXINGTON      CLOUDY    42  40  91 S3        29.61S
MCCOOK         PTCLDY    38  35  89 W5        29.60F WCI  34
OGALLALA       CLOUDY    34  29  83 CALM      29.61S
$$

NEZ005>010-023>029-035>040-094-171200-
NORTH CENTRAL NEBRASKA

CITY           SKY/WX    TMP DP  RH WIND       PRES   REMARKS
VALENTINE      PTCLDY    42  29  59 N13G18    29.64R
AINSWORTH      PTCLDY    43  32  64 NW15G22   29.62R
BROKEN BOW     CLOUDY    37  34  89 CALM      29.59F
O`NEILL        CLOUDY    45  41  86 SW8       29.59R
ORD            CLOUDY    37  35  92 E3        29.59F FOG
THEDFORD       CLOUDY    42  35  77 CALM      29.62R
$$

NEZ041-046>049-061>064-073>077-083>087-171200-
SOUTH CENTRAL NEBRASKA

CITY           SKY/WX    TMP DP  RH WIND       PRES   REMARKS
GRAND ISLAND   CLOUDY    52  50  93 S15       29.62F
AURORA         CLOUDY    53  50  90 S14       29.62F
HASTINGS       CLOUDY    52  48  86 S12G22    29.62F
HEBRON         CLOUDY    58  53  83 S9        29.66S
HOLDREGE       CLOUDY    46  46 100 S9        29.61F FOG
YORK           CLOUDY    54  54 100 S12       29.64F
$$

NEZ011>018-030>034-042>045-171200-
NORTHEAST NEBRASKA

CITY           SKY/WX    TMP DP  RH WIND       PRES   REMARKS
NORFOLK        CLOUDY    48  44  86 S13G20    29.60F
ALBION         CLOUDY    48  45  88 S8        29.61F
BLAIR          CLOUDY    49  39  69 S14       29.68F
COLUMBUS       CLOUDY    50  44  80 S9        29.64F
FREMONT        CLOUDY    47  37  66 SE9       29.68S
TEKAMAH        CLOUDY    46  34  62 SE15      29.66F
WAYNE          CLOUDY    43  35  71 S13       29.61F
$$

NEZ050>053-065>068-078-088>093-171200-
SOUTHEAST NEBRASKA

CITY           SKY/WX    TMP DP  RH WIND       PRES   REMARKS
LINCOLN        CLOUDY    54  45  71 S12       29.68F
OMAHA EPPLEY   CLOUDY    48  36  63 S13       29.71F
BEATRICE       CLOUDY    55  49  81 S9        29.67S
FALLS CITY     CLOUDY    54  46  74 S14       29.74F
NEBRASKA CITY  CLOUDY    51  42  72 S20       29.71F
PLATTSMOUTH    CLOUDY    48  40  72 SE13      29.71F
$$

NEZ044-045-051>053-067-171200-
OMAHA AREA

CITY           SKY/WX    TMP DP  RH WIND       PRES   REMARKS
OMAHA EPPLEY   CLOUDY    48  36  63 S13       29.71F
BLAIR          CLOUDY    49  39  69 S14       29.68F
FREMONT        CLOUDY    47  37  66 SE9       29.68S
MILLARD        CLOUDY    51  40  67 SE9       29.70F
OFFUTT AFB     CLOUDY    50  39  66 SE15      29.71F
PLATTSMOUTH    CLOUDY    48  40  72 SE13      29.71F
WAHOO          CLOUDY    48  37  64 SE9       29.68S
$$



USA.gov is the U.S. government's official web portal to all federal, state and local government web resources and services.